Regional Weather Roundup
Issued by NWS

Home | Current Version | Previous Version | Text Only | Print | Product List | Glossary Off
Versions: 1 2 3 4 5 6 7 8 9 10 11 12 13 14 15 16 17 18 19 20 21 22 23 24 25 26 27 28 29 30 31 32 33 34 35 36 37 38 39 40 41 42 43 44 45 46 47 48 49 50

000
ASUS45 KPSR 170010
RWRAZ

ARIZONA REGIONAL HOURLY WEATHER ROUNDUP
NATIONAL WEATHER SERVICE PHOENIX AZ
500 PM MST TUE SEP 16 2014

NOTE: FAIR INDICATES FEW OR NO CLOUDS BELOW 12,000 FEET WITH NO
SIGNIFICANT WEATHER AND/OR OBSTRUCTIONS TO VISIBILITY.

AZZ001>003-036-170100-
NORTHWEST ARIZONA

CITY           SKY/WX    TMP DP  RH WIND       PRES   REMARKS
BULLHEAD CITY  SUNNY    102  63  27 SW12      29.72F HX 104
KINGMAN        PTSUNNY   80  59  48 E20G25    29.97R
6HR MIN TEMP:  80; 6HR MAX TEMP:  90;

$$

AZZ004>008-015-016-018-170100-
NORTH CENTRAL ARIZONA

CITY           SKY/WX    TMP DP  RH WIND       PRES   REMARKS
GRAND CANYON   PTSUNNY   76  46  34 NE10      30.19F
6HR MIN TEMP:  74; 6HR MAX TEMP:  81;

PRESCOTT       CLOUDY    77  55  46 VRB5      30.10R
6HR MIN TEMP:  74; 6HR MAX TEMP:  82;

FLAGSTAFF      CLOUDY    65  55  70 SW7       30.24F
6HR MIN TEMP:  64; 6HR MAX TEMP:  75;

PAYSON         CLOUDY    73  55  53 VRB7G15   30.16S
PAGE           MOSUNNY   89  45  21 SE23G32   30.01S
6HR MIN TEMP:  84; 6HR MAX TEMP:  93;

$$

AZZ009>014-017-170100-
NORTHEAST ARIZONA

CITY           SKY/WX    TMP DP  RH WIND       PRES   REMARKS
WINSLOW        CLOUDY    77  54  44 S21       30.09R
6HR MIN TEMP:  77; 6HR MAX TEMP:  87;

SAINT JOHNS    LGT RAIN  65  59  81 SE13      30.19S
6HR MIN TEMP:  65; 6HR MAX TEMP:  78; 6HR PCP: TRACE;

WINDOW ROCK    PTSUNNY   73  48  41 S14       30.22F
6HR MIN TEMP:  72; 6HR MAX TEMP:  78;

SHOW LOW       LGT RAIN  59  57  94 S5        30.25S
$$

AZZ023-170100-
GREATER PHOENIX AREA

CITY           SKY/WX    TMP DP  RH WIND       PRES   REMARKS
PHOENIX        CLOUDY    84  67  56 E14       29.82F
6HR MIN TEMP:  80; 6HR MAX TEMP:  91; 6HR PCP: TRACE;

BUCKEYE          N/A     84  66  54 E17G24    29.82S
GLENDALE       PTSUNNY   84  66  54 NE8       29.84F
LUKE AFB       PTSUNNY   84  67  55 E13       29.82F
6HR MIN TEMP:  82; 6HR MAX TEMP:  91; 6HR PCP: TRACE;

DEER VALLEY    LGT RAIN  79  66  64 E9G17     29.85F
6HR MIN TEMP:  79; 6HR MAX TEMP:  90; 6HR PCP: TRACE;

SCOTTSDALE     LGT RAIN  81  66  60 E7        29.87F
6HR MIN TEMP:  80; 6HR MAX TEMP:  90; 6HR PCP: TRACE;

MESA-GATEWAY   CLOUDY    84  68  58 NE8       29.87F
CHANDLER       CLOUDY    84  70  61 N12       29.84F
$$

AZZ027-028-170100-
SOUTHWEST MARICOPA COUNTY AND PINAL COUNTY

CITY           SKY/WX    TMP DP  RH WIND       PRES   REMARKS
CASA GRANDE    CLOUDY    86  64  48 NE17      29.84F
6HR MIN TEMP:  73; 6HR MAX TEMP:  86;

GILA BEND      MOCLDY    86  64  48 E13       29.79F
                                      6HR PCP:  0.01;

$$

AZZ503-504-507>509-170100-
SOUTHEAST ARIZONA

CITY           SKY/WX    TMP DP  RH WIND       PRES   REMARKS
TUCSON         CLOUDY    81  66  60 E9        29.92F
6HR MIN TEMP:  78; 6HR MAX TEMP:  83; 6HR PCP: TRACE;

DAVIS-MONTHAN  CLOUDY    79  67  66 NE15      29.91F
6HR MIN TEMP:  77; 6HR MAX TEMP:  81; 6HR PCP: TRACE;

RYAN FIELD       N/A     82  68  61 E8        29.91F
NOGALES        CLOUDY    76  62  62 VRB3      29.97F
6HR MIN TEMP:  73; 6HR MAX TEMP:  78; 6HR PCP: TRACE;

SIERRA VISTA   LGT RAIN  70  66  88 CALM      30.06F
                                      6HR PCP:  0.07;

DOUGLAS        CLOUDY    72  65  78 E8        30.02F
6HR MIN TEMP:  72; 6HR MAX TEMP:  78; 6HR PCP:  0.01;

SAFFORD        CLOUDY    71  68  90 NW6       30.03F
6HR MIN TEMP:  68; 6HR MAX TEMP:  73; 6HR PCP:  0.32;

$$

AZZ020-021-025-026-031-170100-
SOUTHWEST ARIZONA

CITY           SKY/WX    TMP DP  RH WIND       PRES   REMARKS
YUMA           CLOUDY    94  60  32 E12       29.73F
6HR MIN TEMP:  94; 6HR MAX TEMP:  99;

$$

CAZ031-033-041-043-047-048-061-170100-
SOUTHERN CALIFORNIA

CITY           SKY/WX    TMP DP  RH WIND       PRES   REMARKS
DOWNTOWN L.A.  MOSUNNY   92  57  30 VRB3      29.68S
6HR MIN TEMP:  92; 6HR MAX TEMP: 103;

L.A. AIRPORT   MOSUNNY   81  59  47 SW9       29.70S
6HR MIN TEMP:  80; 6HR MAX TEMP:  88;

SAN DIEGO      MOSUNNY   89  64  43 N15       29.69R
6HR MIN TEMP:  86; 6HR MAX TEMP:  91;

BURBANK        MOSUNNY   99  53  21 SE10      29.70S
6HR MIN TEMP:  97; 6HR MAX TEMP: 104;

ONTARIO        LGT RAIN  87  74  64 NW7       29.74F
6HR MIN TEMP:  87; 6HR MAX TEMP: 107; 6HR PCP:  0.02;

RIVERSIDE      PTSUNNY   94  61  33 NE6       29.74R
6HR MIN TEMP:  90; 6HR MAX TEMP: 108;

PALM SPRINGS   PTSUNNY  101  65  30 SE13      29.73S HX 104
6HR MIN TEMP:  94; 6HR MAX TEMP: 104;

EL CENTRO NAS  PTSUNNY  100  64  30 SE16      29.69S HX 102
6HR MIN TEMP:  95; 6HR MAX TEMP: 102;

IMPERIAL       MOSUNNY   98  64  32 SE18      29.69S HX 100
6HR MIN TEMP:  94; 6HR MAX TEMP: 102;

BLYTHE         MOSUNNY  100  63  29 S14       29.71F HX 102
6HR MIN TEMP:  94; 6HR MAX TEMP: 101;

NEEDLES        TSTM      81  66  60 SE30G54   29.82R VSB 1/2
6HR MIN TEMP:  82; 6HR MAX TEMP: 104; 6HR PCP:  0.14;

$$

NVZ020-UTZ003-170100-
SOUTHERN NEVADA-UTAH

CITY           SKY/WX    TMP DP  RH WIND       PRES   REMARKS
LAS VEGAS      CLOUDY    98  57  25 S6        29.76F
6HR MIN TEMP:  94; 6HR MAX TEMP: 102;

SALT LAKE CITY MOSUNNY   92  37  14 N3        29.96F
6HR MIN TEMP:  85; 6HR MAX TEMP:  93;

$$

NMZ009-TXZ055-170100-
NEW MEXICO-WEST TEXAS

CITY           SKY/WX    TMP DP  RH WIND       PRES   REMARKS
ALBUQUERQUE    CLOUDY    68  56  65 S14       30.21S
6HR MIN TEMP:  68; 6HR MAX TEMP:  72;

EL PASO        CLOUDY    79  62  56 NE10      30.06F
6HR MIN TEMP:  72; 6HR MAX TEMP:  80; 6HR PCP: TRACE;

$$


........................KEY........................
SKY/WX - SKY CONDITION/WEATHER
TMP    - TEMPERATURE IN FAHRENHEIT
DP     - DEW POINT IN FAHRENHEIT
RH     - RELATIVE HUMIDITY IN PERCENT
WIND   - DIRECTION AND SPEED IN MILES PER HOUR (MPH)
VRB    - VARIABLE WIND DIRECTION
PRES   - MEAN SEA LEVEL PRESSURE IN INCHES OF MERCURY
         F - FALLING PRESSURE   R - RISING PRESSURE
         S - STEADY PRESSURE
VSB    - VISIBILITY IN MILES
HX     - HEAT INDEX IN FAHRENHEIT
WCI    - WIND CHILL INDEX IN FAHRENHEIT
TC     - TEMPERATURE IN CELSIUS WHICH IS ALSO KNOWN AS
         TEMPERATURE IN CENTIGRADE
AFB    - AIR FORCE BASE
         LUKE AFB IS LUKE AIR FORCE BASE
         DAVIS-MONTHAN IS DAVIS-MONTHAN AIR FORCE BASE
NAS    - NAVAL AIR STATION
         EL CENTRO NAS IS EL CENTRO NAVAL AIR STATION
N/A    - NOT AVAILABLE



USA.gov is the U.S. government's official web portal to all federal, state and local government web resources and services.